Flag for New Zealand Weather past 2 weeks in Wellington, New Zealand

57 °F


Feels Like: 53 °F
Forecast: 47 / 58 °F
Wind: 20 mph from North

Location: Wellington Airport

Current Time: Oct 9, 2015 at 4:35:10 PM

Latest Report: Oct 9, 2015 at 4:00 PM

Visibility: N/A

Pressure: 30.24 "Hg

Humidity: 67%

Dew point: 46 °F

Location of WellingtonLocation

Historic Weather in Wellington — Graph


Wellington temperature yesterday

Maximum temperature yesterday: 57 °F (at 12:00 AM)
Minimum temperature yesterday: 48 °F (at 9:30 AM)
Average temperature yesterday: 53 °F

Past Weeks' High & Low Weather Summary

High63 °F (Oct 4, 1:30 PM)94% (Sep 24, 2:30 PM)30.48 "Hg (Sep 24, 2:30 PM)
Low41 °F (Sep 28, 3:30 AM)34% (Oct 5, 3:00 AM)29.45 "Hg (Oct 5, 1:00 AM)
Average53 °F76%30.11 "Hg
* Reported Sep 24 2:00 PM — Oct 9 3:00 PM, Wellington, Weather by CustomWeather, © 2015

Note: Actual official high and low records may vary slightly from our data, if they occured in-between our weather recording intervals... More about our weather records


Wellington weather history for previous 24 hours

Time TempWeatherWind HumidityBarometerVisibility
3:00 PM
Fri, Oct 9
57 °FScattered clouds.20 mph63%30.24 "HgN/A
2:30 PM59 °FPassing clouds.18 mph59%30.27 "HgN/A
2:00 PM59 °FRefreshingly cool.18 mph59%30.27 "HgN/A
1:30 PM57 °FPassing clouds.20 mph63%30.27 "HgN/A
1:00 PM57 °FScattered clouds.21 mph63%30.27 "HgN/A
12:30 PM57 °FScattered clouds.21 mph63%30.27 "HgN/A
12:00 PM57 °FPartly sunny.20 mph67%30.30 "HgN/A
11:30 AM55 °FPartly sunny.18 mph67%30.30 "HgN/A
11:00 AM55 °FOvercast.17 mph67%30.30 "HgN/A
10:30 AM52 °FMostly cloudy.14 mph72%30.30 "HgN/A
10:00 AM52 °FMostly cloudy.14 mph67%30.30 "HgN/A
9:30 AM50 °FOvercast.15 mph67%30.30 "HgN/A
9:00 AM48 °FPartly sunny.13 mph71%30.30 "HgN/A
8:30 AM48 °FMostly cloudy.10 mph66%30.30 "HgN/A
8:00 AM46 °FPartly sunny.12 mph71%30.30 "HgN/A
7:30 AM43 °FScattered clouds.12 mph76%30.30 "HgN/A
7:00 AM43 °FPassing clouds.10 mph76%30.30 "HgN/A
6:30 AM43 °FPassing clouds.12 mph81%30.30 "HgN/A
6:00 AM41 °FQuite cool.8 mph87%30.30 "HgN/A
5:30 AM43 °FQuite cool.10 mph81%30.30 "HgN/A
5:00 AM41 °FQuite cool.8 mph87%30.30 "HgN/A
4:30 AM43 °FQuite cool.8 mph87%30.30 "HgN/A
4:00 AM43 °FPassing clouds.8 mph87%30.30 "HgN/A
3:30 AM43 °FQuite cool.7 mph87%30.30 "HgN/A
3:00 AM43 °FQuite cool.6 mph87%30.30 "HgN/A
2:30 AM43 °FQuite cool.5 mph81%30.30 "HgN/A
2:00 AM43 °FQuite cool.3 mph81%30.30 "HgN/A
1:30 AM43 °FPassing clouds.5 mph81%30.33 "HgN/A
1:00 AM45 °FQuite cool.2 mph76%30.33 "HgN/A
12:30 AM48 °FCool.6 mph66%30.33 "HgN/A
12:00 AM48 °FPassing clouds.7 mph71%30.33 "HgN/A
11:30 PM
Thu, Oct 8
48 °FPassing clouds.8 mph71%30.33 "HgN/A
11:00 PM48 °FCool.9 mph71%30.30 "HgN/A
10:30 PM48 °FCool.12 mph71%30.30 "HgN/A
10:00 PM50 °FPassing clouds.12 mph67%30.30 "HgN/A
9:30 PM50 °FPassing clouds.12 mph67%30.30 "HgN/A
9:00 PM50 °FPassing clouds.15 mph62%30.27 "HgN/A
8:30 PM50 °FPassing clouds.15 mph67%30.27 "HgN/A
8:00 PM50 °FPassing clouds.15 mph62%30.27 "HgN/A
7:30 PM50 °FPartly sunny.14 mph67%30.24 "HgN/A
7:00 PM50 °FOvercast.15 mph67%30.24 "HgN/A
6:30 PM52 °FPartly sunny.17 mph62%30.24 "HgN/A
6:00 PM52 °FMore clouds than sun.16 mph58%30.21 "HgN/A
5:30 PM52 °FPartly sunny.16 mph67%30.21 "HgN/A
5:00 PM52 °FOvercast.15 mph67%30.21 "HgN/A
4:30 PM54 °FOvercast.17 mph58%30.18 "HgN/A
4:00 PM54 °FOvercast.17 mph58%30.18 "HgN/A
Weather by CustomWeather, © 2015

See weather overviewHow to use our weather pages